FW8150 Weather Reports


time (UTC)temp
C
wind
direction
speed
KPH
gust
KPH
rain 1hr
cm
rain 24hr
cm
rain mn
cm
humidity
%
barometer
mb
20260906150548 31 136 4.8 6.4 0.00 0.00 0.00 66 1017.8
20260906150043 31 303 1.6 3.2 0.00 0.00 0.00 67 1017.8
20260906145542 30 31 1.6 4.8 0.00 0.00 0.00 70 1017.8
20260906145038 31 312 1.6 4.8 0.00 0.00 0.00 69 1017.8
20260906144532 31 194 1.6 4.8 0.00 0.00 0.00 69 1017.8
20260906144027 30 107 0.0 3.2 0.00 0.00 0.00 72 1017.8
20260906143522 30 1 3.2 6.4 0.00 0.00 0.00 72 1017.8
20260906143019 30 252 0.0 3.2 0.00 0.00 0.00 71 1017.8
20260906142518 30 30 1.6 3.2 0.00 0.00 0.00 72 1017.7
20260906142014 30 194 0.0 3.2 0.00 0.00 0.00 72 1017.8
20260906141508 29 317 3.2 4.8 0.00 0.00 0.00 74 1017.7
20260906141003 29 62 3.2 3.2 0.00 0.00 0.00 74 1017.7
20260906140503 29 25 0.0 3.2 0.00 0.00 0.00 73 1017.7
20260906140001 28 318 1.6 4.8 0.00 0.00 0.00 75 1017.8
20260906135459 28 170 1.6 4.8 0.00 0.00 0.00 74 1017.6
20260906134954 28 0 0.0 4.8 0.00 0.00 0.00 75 1017.7
20260906134450 27 97 3.2 4.8 0.00 0.00 0.00 76 1017.7
20260906133950 27 247 1.6 4.8 0.00 0.00 0.00 78 1017.6
20260906133446 26 259 0.0 4.8 0.00 0.00 0.00 80 1017.7
20260906132942 26 150 3.2 3.2 0.00 0.00 0.00 82 1017.6
20260906132437 26 18 3.2 4.8 0.00 0.00 0.00 83 1017.3
20260906131932 25 1 1.6 3.2 0.00 0.00 0.00 84 1017.5
20260906131427 25 2 1.6 6.4 0.00 0.00 0.00 84 1017.5
20260906130923 25 57 3.2 6.4 0.00 0.00 0.00 85 1017.5
20260906130422 25 344 1.6 4.8 0.00 0.00 0.00 85 1017.5
20260906125916 24 345 3.2 4.8 0.00 0.00 0.00 86 1017.5
20260906125414 24 25 1.6 4.8 0.00 0.00 0.00 86 1017.4
20260906124908 23 12 1.6 3.2 0.00 0.00 0.00 87 1017.4
20260906124404 23 29 1.6 6.4 0.00 0.00 0.00 87 1017.3
20260906123904 23 35 3.2 3.2 0.00 0.00 0.00 88 1017.2
20260906123358 23 80 0.0 3.2 0.00 0.00 0.00 89 1017.1
20260906122852 22 42 3.2 3.2 0.00 0.00 0.00 90 1017.1
20260906122347 22 32 1.6 3.2 0.00 0.00 0.00 90 1016.9
20260906121844 22 25 0.0 3.2 0.00 0.00 0.00 92 1016.9
20260906121339 21 99 0.0 3.2 0.00 0.00 0.00 93 1017.0
20260906120836 21 5 3.2 3.2 0.00 0.00 0.00 94 1017.0
20260906120332 21 262 0.0 1.6 0.00 0.00 0.00 94 1016.9
20260906115828 21 12 1.6 3.2 0.00 0.00 0.00 94 1016.8
20260906115328 21 15 0.0 1.6 0.00 0.00 0.00 94 1017.0
20260906114827 21 329 0.0 1.6 0.00 0.00 0.00 95 1016.8
20260906114322 21 5 0.0 1.6 0.00 0.00 0.00 95 1016.9
20260906113817 21 319 0.0 0.0 0.00 0.00 0.00 94 1016.6
20260906113317 21 269 0.0 3.2 0.00 0.00 0.00 94 1016.8
20260906112812 21 265 1.6 3.2 0.00 0.00 0.00 93 1016.8
20260906112308 22 286 1.6 1.6 0.00 0.00 0.00 94 1016.8
20260906111808 21 275 3.2 3.2 0.00 0.00 0.00 94 1016.6
20260906111307 21 275 0.0 1.6 0.00 0.00 0.00 94 1016.6
20260906110802 21 287 1.6 1.6 0.00 0.00 0.00 94 1016.7
20260906110258 21 274 0.0 3.2 0.00 0.00 0.00 94 1016.7
20260906105757 21 274 0.0 3.2 0.00 0.00 0.00 93 1016.7
20260906105253 21 245 0.0 1.6 0.00 0.00 0.00 94 1016.7
20260906104748 21 113 0.0 3.2 0.00 0.00 0.00 94 1016.6
20260906104248 21 243 0.0 3.2 0.00 0.00 0.00 93 1016.6
20260906103746 21 287 0.0 1.6 0.00 0.00 0.00 93 1016.6
20260906103245 21 334 0.0 3.2 0.00 0.00 0.00 94 1016.5
20260906102742 21 22 0.0 3.2 0.00 0.00 0.00 94 1016.7
20260906102240 21 321 0.0 1.6 0.00 0.00 0.00 94 1016.4
20260906101736 21 269 0.0 0.0 0.00 0.00 0.00 94 1016.5
20260906101236 21 320 0.0 3.2 0.00 0.00 0.00 94 1016.2
20260906100732 21 313 3.2 3.2 0.00 0.00 0.00 94 1016.2
20260906100231 21 322 0.0 3.2 0.00 0.00 0.00 93 1016.5
20260906095727 21 294 3.2 3.2 0.00 0.00 0.00 93 1016.4
20260906095221 22 297 0.0 0.0 0.00 0.00 0.00 93 1016.0
20260906094720 22 99 0.0 1.6 0.00 0.00 0.00 93 1016.1
20260906094216 22 0 0.0 1.6 0.00 0.00 0.00 93 1016.1
20260906093712 22 230 0.0 3.2 0.00 0.00 0.00 93 1015.9
20260906093208 22 290 0.0 3.2 0.00 0.00 0.00 93 1016.0
20260906092702 22 269 0.0 3.2 0.00 0.00 0.00 92 1016.0
20260906092202 22 166 0.0 3.2 0.00 0.00 0.00 91 1016.0
20260906091658 22 152 1.6 3.2 0.00 0.00 0.00 91 1016.0
20260906091154 22 230 0.0 0.0 0.00 0.00 0.00 91 1016.1
20260906090650 22 217 0.0 0.0 0.00 0.00 0.00 91 1016.0
20260906090149 22 111 0.0 0.0 0.00 0.00 0.00 91 1015.8
20260906085649 22 290 0.0 0.0 0.00 0.00 0.00 91 1015.8
20260906085149 22 304 0.0 1.6 0.00 0.00 0.00 91 1015.8
20260906084649 22 291 0.0 3.2 0.00 0.00 0.00 90 1016.0
20260906084148 23 246 3.2 3.2 0.00 0.00 0.00 89 1015.7
20260906083643 23 147 0.0 0.0 0.00 0.00 0.00 87 1015.8
20260906083139 23 217 0.0 0.0 0.00 0.00 0.00 87 1015.7
20260906082634 23 218 0.0 1.6 0.00 0.00 0.00 87 1015.8
20260906082130 23 189 0.0 1.6 0.00 0.00 0.00 87 1015.4
20260906081626 23 44 0.0 3.2 0.00 0.00 0.00 87 1015.6
20260906081120 23 312 1.6 4.8 0.00 0.00 0.00 89 1015.6
20260906080617 22 303 0.0 3.2 0.00 0.00 0.00 90 1015.7
20260906080113 22 328 3.2 3.2 0.00 0.00 0.00 90 1015.8
20260906075606 23 224 0.0 0.0 0.00 0.00 0.00 90 1015.5
20260906075101 23 249 0.0 0.0 0.00 0.00 0.00 91 1015.6
20260906074556 22 340 1.6 1.6 0.00 0.00 0.00 91 1015.7
20260906074055 22 310 0.0 3.2 0.00 0.00 0.00 93 1015.8
20260906073550 22 259 1.6 3.2 0.00 0.00 0.00 92 1015.8
20260906073047 22 299 0.0 1.6 0.00 0.00 0.00 91 1015.9
20260906072546 22 320 1.6 3.2 0.00 0.00 0.00 91 1015.9
20260906072043 22 309 0.0 1.6 0.00 0.00 0.00 91 1015.9
20260906071539 22 217 0.0 0.0 0.00 0.00 0.00 91 1016.0
20260906071033 22 263 1.6 3.2 0.00 0.00 0.00 91 1016.0
20260906070530 22 313 1.6 3.2 0.00 0.00 0.00 90 1015.9
20260906070025 23 319 1.6 1.6 0.00 0.00 0.00 89 1016.0
20260906065524 23 166 0.0 0.0 0.00 0.00 0.00 89 1015.9
20260906065020 23 322 0.0 0.0 0.00 0.00 0.00 89 1016.0
20260906064517 23 322 0.0 0.0 0.00 0.00 0.00 89 1016.1
20260906064017 23 269 0.0 0.0 0.00 0.00 0.00 89 1016.4
20260906063512 23 227 0.0 3.2 0.00 0.00 0.00 89 1016.2
20260906063008 23 317 0.0 0.0 0.00 0.00 0.00 90 1016.5
20260906062503 23 235 0.0 0.0 0.00 0.00 0.00 90 1016.2
20260906061957 22 247 1.6 1.6 0.00 0.00 0.00 90 1016.2
20260906061454 22 321 1.6 3.2 0.00 0.00 0.00 90 1016.4
20260906060953 23 304 1.6 3.2 0.00 0.00 0.00 90 1016.1
20260906060450 23 262 1.6 3.2 0.00 0.00 0.00 89 1016.5
20260906055947 23 269 0.0 1.6 0.00 0.00 0.00 88 1016.2
20260906055442 23 331 1.6 1.6 0.00 0.00 0.00 87 1016.4
20260906054937 23 269 0.0 1.6 0.00 0.00 0.00 88 1016.5
20260906054432 23 336 0.0 1.6 0.00 0.00 0.00 87 1016.4
20260906053927 23 327 1.6 1.6 0.00 0.00 0.00 87 1016.2
20260906053424 23 321 1.6 1.6 0.00 0.00 0.00 86 1016.1
20260906052919 23 322 0.0 0.0 0.00 0.00 0.00 86 1016.1
20260906052415 23 322 0.0 0.0 0.00 0.00 0.00 86 1016.1
20260906051912 23 283 0.0 1.6 0.00 0.00 0.00 87 1016.1
20260906051412 23 315 0.0 1.6 0.00 0.00 0.00 88 1016.0
20260906050908 23 269 0.0 1.6 0.00 0.00 0.00 88 1016.2
20260906050408 23 293 0.0 1.6 0.00 0.00 0.00 88 1016.4
20260906045907 23 284 0.0 3.2 0.00 0.00 0.00 88 1016.2
20260906045406 23 308 0.0 1.6 0.00 0.00 0.00 87 1016.2
20260906044903 23 271 1.6 3.2 0.00 0.00 0.00 87 1016.1
20260906044402 24 297 0.0 1.6 0.00 0.00 0.00 86 1016.1
20260906043858 24 317 3.2 3.2 0.00 0.00 0.00 86 1016.2
20260906043355 24 269 1.6 3.2 0.00 0.00 0.00 85 1016.4
20260906042855 24 344 3.2 4.8 0.00 0.00 0.00 85 1016.0
20260906042353 24 324 1.6 3.2 0.00 0.00 0.00 84 1016.1
20260906041849 25 142 0.0 3.2 0.00 0.00 0.00 83 1016.1
20260906041345 24 297 0.0 0.0 0.00 0.00 0.00 86 1016.4
20260906040845 24 269 0.0 1.6 0.00 0.00 0.00 85 1016.1
20260906040340 25 287 1.6 3.2 0.00 0.00 0.00 85 1016.2
20260906035835 25 321 1.6 3.2 0.00 0.00 0.00 82 1016.1
20260906035331 25 6 0.0 1.6 0.00 0.00 0.00 81 1016.0
20260906034827 25 296 0.0 1.6 0.00 0.00 0.00 81 1016.0
20260906034327 25 254 3.2 3.2 0.00 0.00 0.00 81 1016.0
20260906033823 25 240 0.0 3.2 0.00 0.00 0.00 80 1016.2
20260906033321 25 246 1.6 1.6 0.00 0.00 0.00 80 1016.1
20260906032818 26 15 0.0 1.6 0.00 0.00 0.00 77 1016.1
20260906032314 26 309 0.0 1.6 0.00 0.00 0.00 77 1015.9
20260906031809 26 0 0.0 1.6 0.00 0.00 0.00 78 1015.9
20260906031304 26 336 0.0 1.6 0.00 0.00 0.00 78 1015.8
20260906030804 26 333 0.0 1.6 0.00 0.00 0.00 76 1015.8
20260906030259 26 309 0.0 1.6 0.00 0.00 0.00 77 1015.9
20260906025759 26 322 0.0 3.2 0.00 0.00 0.00 77 1016.0
20260906025253 26 336 1.6 3.2 0.00 0.00 0.00 76 1015.6
20260906024752 26 309 0.0 1.6 0.00 0.00 0.00 76 1015.8
20260906024251 26 321 0.0 3.2 0.00 0.00 0.00 77 1016.0
20260906023747 26 290 0.0 3.2 0.00 0.00 0.00 77 1015.7
20260906023242 26 304 0.0 1.6 0.00 0.00 0.00 75 1015.8
20260906022738 26 345 0.0 0.0 0.00 0.00 0.00 79 1015.5
20260906022233 26 50 0.0 0.0 0.00 0.00 0.00 78 1015.6
20260906021729 26 218 0.0 1.6 0.00 0.00 0.00 78 1015.4
20260906021227 27 326 0.0 3.2 0.00 0.00 0.00 78 1015.5
20260906020723 26 122 3.2 12.9 0.00 0.00 0.00 79 1015.4
20260906020217 27 52 0.0 1.6 0.00 0.00 0.00 75 1015.2
20260906015712 27 269 0.0 0.0 0.00 0.00 0.00 75 1015.2
20260906015210 27 309 0.0 0.0 0.00 0.00 0.00 76 1015.1
20260906014710 27 52 0.0 1.6 0.00 0.00 0.00 76 1014.9
20260906014207 27 37 0.0 1.6 0.00 0.00 0.00 76 1015.0
20260906013702 28 20 1.6 1.6 0.00 0.00 0.00 76 1015.0
20260906013157 28 309 0.0 0.0 0.00 0.00 0.00 75 1014.8
20260906012658 28 309 0.0 0.0 0.00 0.00 0.00 75 1014.7
20260906012157 28 129 0.0 0.0 0.00 0.00 0.00 74 1014.5
20260906011653 28 129 0.0 0.0 0.00 0.00 0.00 74 1014.6
20260906011148 28 76 0.0 0.0 0.00 0.00 0.00 73 1014.5
20260906010643 28 242 0.0 0.0 0.00 0.00 0.00 73 1014.6
20260906010139 29 15 0.0 1.6 0.00 0.00 0.00 72 1014.4
20260906005639 29 38 1.6 1.6 0.00 0.00 0.00 74 1014.4
20260906005138 30 297 0.0 0.0 0.00 0.00 0.00 71 1014.5
20260906004637 30 308 0.0 0.0 0.00 0.00 0.00 69 1014.3
20260906004132 30 235 0.0 0.0 0.00 0.00 0.00 67 1014.5
20260906003627 30 255 0.0 3.2 0.00 0.00 0.00 64 1014.3
20260906003123 31 247 3.2 3.2 0.00 0.00 0.00 61 1014.4
20260906002618 31 240 0.0 0.0 0.00 0.00 0.00 61 1014.5
20260906002113 31 242 0.0 0.0 0.00 0.00 0.00 61 1014.5
20260906001608 31 309 0.0 0.0 0.00 0.00 0.00 60 1014.7
20260906001102 32 309 0.0 0.0 0.00 0.00 0.00 60 1014.6
20260906000558 32 304 0.0 0.0 0.00 0.00 0.00 58 1014.5
20260906000053 32 297 0.0 0.0 0.00 0.00 0.00 57 1014.7
20260905235552 33 230 0.0 0.0 0.00 0.00 0.00 57 1014.8
20260905235048 33 142 0.0 1.6 0.00 0.00 0.00 55 1014.8
20260905234543 33 333 0.0 0.0 0.00 0.00 0.00 52 1014.6
20260905234038 34 95 1.6 4.8 0.00 0.00 0.00 50 1014.8
20260905233532 34 194 0.0 1.6 0.00 0.00 0.00 52 1014.8
20260905233032 35 164 1.6 3.2 0.00 0.00 0.00 49 1014.8
20260905232528 35 217 3.2 3.2 0.00 0.00 0.00 51 1014.8
20260905232023 36 164 0.0 1.6 0.00 0.00 0.00 46 1014.7
20260905231518 36 142 0.0 0.0 0.00 0.00 0.00 48 1014.8
20260905231015 35 161 0.0 3.2 0.00 0.00 0.00 48 1014.8
20260905230514 36 143 0.0 3.2 0.00 0.00 0.00 47 1014.7
20260905230012 36 161 1.6 3.2 0.00 0.00 0.00 45 1014.6
20260905225507 36 202 0.0 3.2 0.00 0.00 0.00 45 1014.5
20260905225002 36 95 0.0 3.2 0.00 0.00 0.00 45 1014.5
20260905224457 35 139 1.6 3.2 0.00 0.00 0.00 47 1014.4
20260905223956 34 180 0.0 0.0 0.00 0.00 0.00 50 1014.8
20260905223454 33 6 0.0 1.6 0.00 0.00 0.00 53 1014.6
20260905222949 34 15 0.0 0.0 0.00 0.00 0.00 50 1014.6
20260905222449 34 195 0.0 1.6 0.00 0.00 0.00 50 1014.5
20260905221945 34 229 0.0 3.2 0.00 0.00 0.00 49 1014.8
20260905221441 35 214 0.0 3.2 0.00 0.00 0.00 49 1014.6
20260905220937 35 294 0.0 3.2 0.00 0.00 0.00 49 1014.8
20260905220433 35 292 0.0 3.2 0.00 0.00 0.00 46 1014.7
20260905215932 36 255 1.6 3.2 0.00 0.00 0.00 45 1014.8
20260905215427 37 68 1.6 4.8 0.00 0.00 0.00 43 1014.8
20260905214924 36 255 3.2 3.2 0.00 0.00 0.00 44 1014.9
20260905214420 35 245 14.5 16.1 0.00 0.00 0.00 46 1015.0
20260905213919 36 206 3.2 4.8 0.00 0.00 0.00 46 1015.0
20260905213416 35 243 4.8 9.7 0.00 0.00 0.00 48 1015.0
20260905212911 33 249 4.8 9.7 0.00 0.00 0.00 49 1015.0
20260905212406 34 180 3.2 4.8 0.00 0.00 0.00 48 1014.9
20260905211905 33 145 0.0 3.2 0.00 0.00 0.00 50 1014.7
20260905211401 33 132 1.6 4.8 0.00 0.00 0.00 50 1014.6
20260905210857 33 89 0.0 3.2 0.00 0.00 0.00 50 1014.8
20260905210356 33 138 1.6 3.2 0.00 0.00 0.00 51 1014.7
20260905205856 33 131 3.2 4.8 0.00 0.00 0.00 52 1014.9
20260905205351 33 26 1.6 3.2 0.00 0.00 0.00 52 1015.1
20260905204850 33 111 1.6 3.2 0.00 0.00 0.00 52 1015.1
20260905204346 33 87 0.0 3.2 0.00 0.00 0.00 52 1015.1
20260905203844 33 348 1.6 3.2 0.00 0.00 0.00 51 1015.2
20260905203341 33 116 1.6 3.2 0.00 0.00 0.00 51 1015.2
20260905202836 33 101 3.2 6.4 0.00 0.00 0.00 51 1015.2
20260905202331 35 154 3.2 9.7 0.00 0.00 0.00 47 1015.2
20260905201827 35 43 4.8 6.4 0.00 0.00 0.00 47 1015.2
20260905201323 33 2 6.4 14.5 0.00 0.00 0.00 50 1015.3
20260905200822 36 14 6.4 17.7 0.00 0.00 0.00 46 1015.7
20260905200318 37 128 4.8 6.4 0.00 0.00 0.00 38 1015.4
20260905195815 38 163 3.2 4.8 0.00 0.00 0.00 37 1015.4
20260905195311 38 178 3.2 4.8 0.00 0.00 0.00 38 1015.4
20260905194807 36 184 0.0 4.8 0.00 0.00 0.00 40 1015.3
20260905194306 36 197 3.2 4.8 0.00 0.00 0.00 41 1015.6
20260905193806 36 125 1.6 3.2 0.00 0.00 0.00 41 1015.6
20260905193301 36 208 3.2 6.4 0.00 0.00 0.00 42 1015.6
20260905192756 36 155 3.2 4.8 0.00 0.00 0.00 41 1016.1
20260905192252 36 125 3.2 4.8 0.00 0.00 0.00 42 1015.7
20260905191751 36 232 11.3 12.9 0.00 0.00 0.00 42 1016.0
20260905191250 36 318 1.6 8.0 0.00 0.00 0.00 43 1015.9
20260905190749 37 181 3.2 6.4 0.00 0.00 0.00 41 1016.1
20260905190248 37 106 3.2 6.4 0.00 0.00 0.00 40 1016.0
20260905185747 38 81 4.8 6.4 0.00 0.00 0.00 40 1016.1
20260905185242 38 104 6.4 11.3 0.00 0.00 0.00 39 1016.1
20260905184736 37 133 4.8 8.0 0.00 0.00 0.00 41 1016.1
20260905184236 37 151 4.8 6.4 0.00 0.00 0.00 42 1016.2
20260905183735 37 144 8.0 8.0 0.00 0.00 0.00 42 1016.2
20260905183231 37 103 3.2 8.0 0.00 0.00 0.00 41 1016.6
20260905182730 36 182 6.4 8.0 0.00 0.00 0.00 44 1016.6
20260905182230 36 116 1.6 4.8 0.00 0.00 0.00 42 1016.6
20260905181725 35 156 0.0 6.4 0.00 0.00 0.00 46 1016.5
20260905181224 33 171 1.6 6.4 0.00 0.00 0.00 50 1016.8
20260905180720 33 97 1.6 3.2 0.00 0.00 0.00 52 1016.9
20260905180215 35 148 3.2 4.8 0.00 0.00 0.00 46 1016.7
20260905175714 35 110 0.0 3.2 0.00 0.00 0.00 44 1016.9
20260905175209 35 34 3.2 3.2 0.00 0.00 0.00 44 1016.9
20260905174704 35 334 4.8 6.4 0.00 0.00 0.00 43 1016.9
20260905174200 35 41 1.6 3.2 0.00 0.00 0.00 43 1017.0
20260905173656 35 357 3.2 9.7 0.00 0.00 0.00 43 1017.1
20260905173151 36 6 9.7 11.3 0.00 0.00 0.00 42 1017.1
20260905172650 36 20 6.4 9.7 0.00 0.00 0.00 42 1017.2
20260905172145 38 338 3.2 6.4 0.00 0.00 0.00 39 1017.1
20260905171641 38 178 3.2 3.2 0.00 0.00 0.00 39 1017.1
20260905171137 37 326 6.4 6.4 0.00 0.00 0.00 41 1017.3
20260905170634 37 141 3.2 4.8 0.00 0.00 0.00 41 1017.2
20260905170129 37 120 4.8 4.8 0.00 0.00 0.00 41 1017.4
20260905165628 35 234 9.7 11.3 0.00 0.00 0.00 44 1017.3
20260905165124 36 196 3.2 8.0 0.00 0.00 0.00 42 1017.5
20260905164619 36 329 0.0 3.2 0.00 0.00 0.00 43 1017.5
20260905164118 36 226 3.2 8.0 0.00 0.00 0.00 42 1017.6
20260905163615 36 158 6.4 8.0 0.00 0.00 0.00 43 1017.6
20260905163111 37 195 0.0 3.2 0.00 0.00 0.00 42 1017.7
20260905162607 36 152 6.4 6.4 0.00 0.00 0.00 43 1017.7
20260905162106 35 218 3.2 6.4 0.00 0.00 0.00 44 1017.6
20260905161606 35 357 9.7 9.7 0.00 0.00 0.00 45 1017.7
20260905161104 36 246 6.4 12.9 0.00 0.00 0.00 44 1017.7
20260905160603 35 35 3.2 6.4 0.00 0.00 0.00 45 1017.6
20260905155557 35 240 3.2 8.0 0.00 0.00 0.00 48 1017.7
20260905155056 34 5 3.2 6.4 0.00 0.00 0.00 49 1017.8
20260905154551 33 237 4.8 9.7 0.00 0.00 0.00 52 1017.9
20260905154046 34 236 4.8 6.4 0.00 0.00 0.00 52 1017.9
20260905153542 33 0 1.6 4.8 0.00 0.00 0.00 53 1017.9
20260905153042 33 14 3.2 4.8 0.00 0.00 0.00 53 1017.8
20260905152537 33 224 6.4 12.9 0.00 0.00 0.00 54 1017.7
20260905152032 32 201 1.6 12.9 0.00 0.00 0.00 56 1017.8
20260905151528 32 234 8.0 8.0 0.00 0.00 0.00 56 1017.8
20260905151023 32 233 6.4 8.0 0.00 0.00 0.00 57 1017.7